QPF
0.00 0.00 0.00 0.00 0.00 0.00 0.00 0.00 0.00 0.00 0.00 0.00 0.00 0.00 0.00 0.00 0.00 0.01 0.00 0.00 0.00 0.00 0.00 0.01 0.01 0.01 0.01 0.01 0.01 0.01 0.01 0.01 0.01 0.01 0.01 0.01 0.01 0.01 0.01 0.01 0.01 0.01 0.01 0.01 0.00 0.00 0.00 0.01 0.01
0.00 0.00 0.00 0.00 0.00 0.00 0.00 0.00 0.00 0.00 0.00 0.00 0.00 0.00 0.00 0.00 0.00 0.00 0.00 0.00 0.00 0.00 0.00 0.01 0.01 0.01 0.01 0.01 0.01 0.01 0.01 0.01 0.01 0.01 0.01 0.01 0.01 0.01 0.01 0.01 0.01 0.01 0.01 0.01 0.01 0.01 0.00 0.01 0.02
0.00 0.00 0.00 0.00 0.00 0.00 0.00 0.00 0.00 0.00 0.00 0.00 0.00 0.00 0.01 0.01 0.00 0.00 0.00 0.00 0.00 0.00 0.01 0.01 0.01 0.01 0.01 0.01 0.01 0.01 0.01 0.01 0.01 0.01 0.01 0.00 0.00 0.01 0.01 0.01 0.01 0.01 0.01 0.02 0.01 0.01 0.01 0.01 0.03
0.00 0.00 0.00 0.00 0.00 0.00 0.00 0.00 0.00 0.00 0.00 0.00 0.00 0.01 0.00 0.00 0.00 0.01 0.02 0.01 0.01 0.01 0.01 0.01 0.01 0.01 0.01 0.01 0.01 0.01 0.01 0.00 0.01 0.01 0.01 0.01 0.01 0.01 0.01 0.01 0.01 0.01 0.01 0.02 0.01 0.01 0.01 0.01 0.02
0.00 0.00 0.00 0.00 0.00 0.00 0.00 0.00 0.00 0.00 0.00 0.00 0.00 0.01 0.01 0.00 0.00 0.01 0.02 0.01 0.01 0.01 0.01 0.01 0.01 0.01 0.01 0.01 0.01 0.01 0.01 0.00 0.01 0.01 0.01 0.01 0.01 0.01 0.01 0.01 0.01 0.01 0.02 0.01 0.01 0.01 0.01 0.02 0.02
0.00 0.00 0.00 0.00 0.00 0.00 0.00 0.00 0.00 0.00 0.00 0.00 0.00 0.00 0.01 0.00 0.00 0.01 0.00 0.00 0.00 0.01 0.01 0.02 0.03 0.02 0.01 0.01 0.01 0.01 0.01 0.01 0.01 0.01 0.01 0.01 0.01 0.01 0.01 0.01 0.02 0.02 0.01 0.01 0.01 0.01 0.02 0.02 0.03
0.00 0.00 0.00 0.00 0.00 0.00 0.00 0.00 0.00 0.00 0.00 0.00 0.00 0.01 0.01 0.00 0.01 0.00 0.00 0.01 0.01 0.02 0.02 0.03 0.04 0.03 0.02 0.01 0.01 0.01 0.01 0.01 0.01 0.01 0.01 0.02 0.02 0.02 0.01 0.01 0.02 0.01 0.01 0.01 0.01 0.01 0.02 0.03 0.04
0.00 0.00 0.00 0.00 0.00 0.00 0.00 0.00 0.00 0.00 0.00 0.00 0.00 0.01 0.01 0.01 0.02 0.02 0.02 0.03 0.04 0.04 0.04 0.04 0.06 0.06 0.03 0.02 0.01 0.02 0.02 0.02 0.01 0.01 0.01 0.02 0.02 0.02 0.02 0.02 0.02 0.02 0.01 0.01 0.01 0.01 0.01 0.02 0.04
0.00 0.00 0.00 0.00 0.00 0.00 0.00 0.00 0.00 0.00 0.00 0.00 0.00 0.00 0.01 0.01 0.02 0.02 0.03 0.04 0.06 0.08 0.09 0.08 0.08 0.06 0.05 0.04 0.02 0.04 0.03 0.02 0.02 0.02 0.02 0.04 0.04 0.04 0.04 0.02 0.02 0.02 0.01 0.01 0.01 0.01 0.01 0.01 0.03
0.00 0.00 0.00 0.00 0.00 0.00 0.00 0.00 0.00 0.00 0.00 0.00 0.00 0.00 0.00 0.01 0.03 0.02 0.03 0.04 0.04 0.07 0.07 0.07 0.08 0.08 0.06 0.04 0.04 0.06 0.05 0.04 0.04 0.04 0.05 0.05 0.04 0.03 0.03 0.02 0.02 0.03 0.04 0.03 0.02 0.01 0.01 0.01 0.02
0.00 0.00 0.00 0.00 0.00 0.00 0.00 0.00 0.00 0.00 0.00 0.00 0.00 0.00 0.00 0.01 0.03 0.03 0.04 0.06 0.07 0.07 0.05 0.04 0.06 0.08 0.07 0.07 0.05 0.06 0.07 0.05 0.03 0.03 0.04 0.05 0.03 0.03 0.03 0.03 0.04 0.06 0.06 0.07 0.05 0.03 0.02 0.01 0.01
0.00 0.00 0.00 0.00 0.00 0.00 0.00 0.00 0.00 0.00 0.00 0.00 0.00 0.01 0.02 0.03 0.04 0.04 0.04 0.08 0.08 0.06 0.06 0.05 0.05 0.06 0.06 0.07 0.05 0.05 0.04 0.03 0.04 0.03 0.03 0.04 0.05 0.05 0.05 0.04 0.05 0.05 0.06 0.06 0.05 0.06 0.04 0.02 0.01
0.00 0.00 0.00 0.00 0.00 0.00 0.00 0.00 0.00 0.00 0.00 0.00 0.00 0.02 0.03 0.04 0.05 0.04 0.05 0.11 0.12 0.10 0.10 0.09 0.07 0.05 0.04 0.05 0.06 0.04 0.04 0.03 0.03 0.03 0.03 0.04 0.07 0.07 0.05 0.05 0.05 0.04 0.05 0.05 0.05 0.06 0.05 0.03 0.02
0.00 0.00 0.00 0.00 0.00 0.00 0.00 0.00 0.00 0.00 0.00 0.00 0.01 0.04 0.05 0.05 0.04 0.04 0.07 0.12 0.11 0.12 0.13 0.11 0.08 0.05 0.05 0.07 0.07 0.06 0.04 0.04 0.04 0.03 0.04 0.05 0.07 0.06 0.07 0.06 0.06 0.05 0.06 0.05 0.04 0.05 0.05 0.05 0.03
0.00 0.00 0.00 0.00 0.00 0.00 0.00 0.00 0.00 0.00 0.00 0.00 0.00 0.02 0.03 0.03 0.05 0.06 0.11 0.13 0.12 0.13 0.14 0.12 0.09 0.08 0.10 0.11 0.11 0.08 0.07 0.06 0.06 0.05 0.04 0.05 0.06 0.06 0.05 0.04 0.05 0.05 0.04 0.04 0.04 0.04 0.04 0.04 0.04
0.00 0.00 0.00 0.00 0.00 0.00 0.00 0.00 0.00 0.00 0.00 0.00 0.01 0.01 0.02 0.03 0.06 0.07 0.09 0.11 0.13 0.15 0.16 0.16 0.09 0.11 0.13 0.15 0.12 0.09 0.07 0.07 0.06 0.04 0.04 0.05 0.05 0.06 0.03 0.02 0.03 0.03 0.02 0.02 0.04 0.04 0.04 0.05 0.07
0.00 0.00 0.00 0.00 0.00 0.00 0.00 0.00 0.00 0.00 0.00 0.01 0.01 0.02 0.03 0.03 0.05 0.06 0.08 0.11 0.12 0.15 0.17 0.16 0.13 0.12 0.15 0.15 0.12 0.08 0.06 0.06 0.06 0.05 0.04 0.04 0.03 0.03 0.03 0.02 0.02 0.01 0.01 0.02 0.01 0.02 0.04 0.03 0.04
0.00 0.00 0.00 0.00 0.00 0.00 0.00 0.00 0.00 0.00 0.00 0.00 0.01 0.01 0.02 0.03 0.04 0.05 0.07 0.11 0.12 0.18 0.20 0.19 0.16 0.15 0.16 0.16 0.14 0.11 0.07 0.06 0.05 0.05 0.04 0.02 0.02 0.02 0.02 0.02 0.01 0.01 0.01 0.02 0.03 0.03 0.02 0.02 0.02
0.00 0.00 0.00 0.00 0.00 0.00 0.00 0.00 0.00 0.00 0.00 0.00 0.00 0.00 0.01 0.02 0.03 0.05 0.09 0.12 0.13 0.19 0.22 0.22 0.22 0.16 0.13 0.13 0.11 0.10 0.09 0.06 0.04 0.03 0.02 0.02 0.01 0.01 0.02 0.01 0.01 0.01 0.01 0.01 0.02 0.02 0.02 0.01 0.01
0.00 0.00 0.00 0.00 0.00 0.00 0.00 0.00 0.00 0.00 0.00 0.00 0.00 0.00 0.01 0.01 0.02 0.06 0.09 0.09 0.11 0.15 0.19 0.17 0.20 0.18 0.12 0.12 0.10 0.10 0.11 0.08 0.05 0.04 0.02 0.02 0.01 0.01 0.01 0.01 0.01 0.01 0.01 0.01 0.00 0.01 0.01 0.01 0.01
0.00 0.00 0.00 0.00 0.00 0.00 0.00 0.00 0.00 0.00 0.00 0.00 0.00 0.01 0.01 0.01 0.02 0.04 0.05 0.08 0.11 0.15 0.18 0.17 0.18 0.18 0.14 0.13 0.11 0.09 0.09 0.06 0.05 0.04 0.03 0.02 0.01 0.01 0.01 0.01 0.01 0.01 0.00 0.00 0.00 0.00 0.00 0.00 0.00
0.00 0.00 0.00 0.00 0.00 0.00 0.00 0.00 0.00 0.00 0.00 0.00 0.00 0.01 0.00 0.01 0.01 0.02 0.05 0.08 0.08 0.12 0.14 0.15 0.15 0.19 0.16 0.12 0.08 0.06 0.05 0.04 0.04 0.04 0.03 0.02 0.02 0.00 0.00 0.00 0.01 0.00 0.00 0.00 0.00 0.00 0.00 0.00 0.00
0.00 0.00 0.00 0.00 0.00 0.00 0.00 0.00 0.00 0.00 0.00 0.00 0.00 0.00 0.00 0.01 0.01 0.03 0.04 0.06 0.05 0.08 0.09 0.11 0.13 0.21 0.19 0.13 0.09 0.07 0.06 0.04 0.04 0.03 0.02 0.01 0.01 0.00 0.00 0.00 0.00 0.00 0.00 0.00 0.00 0.00 0.00 0.00 0.00
0.00 0.00 0.00 0.00 0.00 0.00 0.00 0.00 0.00 0.00 0.00 0.00 0.00 0.00 0.00 0.00 0.01 0.03 0.03 0.04 0.04 0.06 0.06 0.07 0.09 0.16 0.18 0.13 0.10 0.07 0.07 0.05 0.03 0.02 0.02 0.01 0.00 0.00 0.00 0.00 0.00 0.00 0.00 0.00 0.00 0.00 0.00 0.00 0.00
0.00 0.00 0.00 0.00 0.00 0.00 0.00 0.00 0.00 0.00 0.00 0.00 0.00 0.00 0.00 0.00 0.01 0.01 0.02 0.02 0.02 0.03 0.04 0.04 0.05 0.10 0.13 0.10 0.09 0.08 0.08 0.06 0.03 0.02 0.02 0.02 0.01 0.01 0.01 0.00 0.00 0.00 0.00 0.00 0.00 0.00 0.00 0.00 0.00
0.00 0.00 0.00 0.00 0.00 0.00 0.00 0.00 0.00 0.00 0.00 0.00 0.00 0.00 0.00 0.00 0.00 0.01 0.00 0.01 0.01 0.01 0.03 0.03 0.04 0.06 0.08 0.08 0.08 0.09 0.07 0.05 0.03 0.03 0.02 0.02 0.01 0.01 0.01 0.00 0.00 0.00 0.00 0.00 0.00 0.00 0.00 0.00 0.00
0.00 0.00 0.00 0.00 0.00 0.00 0.00 0.00 0.00 0.00 0.00 0.00 0.00 0.00 0.00 0.00 0.00 0.00 0.00 0.00 0.01 0.01 0.02 0.02 0.03 0.04 0.06 0.09 0.09 0.08 0.07 0.05 0.05 0.04 0.02 0.02 0.02 0.01 0.02 0.01 0.01 0.01 0.00 0.00 0.00 0.00 0.00 0.00 0.00
0.00 0.00 0.00 0.00 0.00 0.00 0.00 0.00 0.00 0.00 0.00 0.00 0.00 0.00 0.00 0.00 0.00 0.00 0.00 0.00 0.01 0.01 0.02 0.02 0.03 0.04 0.06 0.08 0.09 0.09 0.09 0.07 0.07 0.05 0.03 0.03 0.03 0.03 0.04 0.03 0.02 0.01 0.01 0.01 0.01 0.00 0.00 0.00 0.00
0.00 0.00 0.00 0.00 0.00 0.00 0.00 0.00 0.00 0.00 0.00 0.00 0.00 0.00 0.00 0.00 0.00 0.00 0.00 0.00 0.00 0.01 0.01 0.02 0.02 0.03 0.05 0.08 0.09 0.12 0.11 0.09 0.07 0.06 0.05 0.05 0.05 0.04 0.05 0.04 0.03 0.02 0.02 0.02 0.02 0.01 0.01 0.01 0.01
0.00 0.00 0.00 0.00 0.00 0.00 0.00 0.00 0.00 0.00 0.00 0.00 0.00 0.00 0.00 0.00 0.00 0.00 0.00 0.00 0.00 0.00 0.01 0.01 0.02 0.02 0.04 0.07 0.10 0.11 0.12 0.12 0.10 0.07 0.06 0.06 0.06 0.06 0.07 0.06 0.04 0.03 0.02 0.02 0.02 0.02 0.01 0.01 0.02
MSLP
1009.86 1010.20 1010.61 1010.99 1011.27 1011.38 1011.33 1011.14 1010.89 1010.67 1010.53 1010.51 1010.60 1010.75 1010.89 1010.98 1010.96 1010.85 1010.70 1010.59 1010.60 1010.80 1011.20 1011.79 1012.49 1013.19 1013.81 1014.27 1014.54 1014.65 1014.66 1014.65 1014.70 1014.85 1015.12 1015.46 1015.83 1016.15 1016.37 1016.46 1016.44 1016.35 1016.25 1016.20 1016.23 1016.34 1016.53 1016.73 1016.91
1009.98 1010.36 1010.77 1011.12 1011.32 1011.33 1011.16 1010.86 1010.51 1010.20 1009.99 1009.91 1009.96 1010.07 1010.21 1010.29 1010.29 1010.22 1010.14 1010.12 1010.24 1010.55 1011.08 1011.78 1012.57 1013.36 1014.04 1014.54 1014.85 1014.97 1014.99 1014.98 1015.02 1015.16 1015.41 1015.73 1016.06 1016.35 1016.53 1016.59 1016.55 1016.46 1016.37 1016.33 1016.39 1016.53 1016.74 1016.95 1017.13
1010.17 1010.58 1010.96 1011.24 1011.33 1011.23 1010.95 1010.55 1010.11 1009.73 1009.48 1009.38 1009.41 1009.53 1009.67 1009.77 1009.80 1009.78 1009.75 1009.81 1010.01 1010.41 1011.02 1011.79 1012.66 1013.50 1014.23 1014.77 1015.11 1015.27 1015.31 1015.31 1015.36 1015.49 1015.72 1016.01 1016.30 1016.55 1016.71 1016.76 1016.72 1016.64 1016.57 1016.57 1016.66 1016.82 1017.03 1017.24 1017.40
1010.43 1010.83 1011.16 1011.34 1011.33 1011.10 1010.71 1010.23 1009.73 1009.33 1009.08 1008.99 1009.04 1009.18 1009.34 1009.47 1009.53 1009.55 1009.57 1009.68 1009.93 1010.38 1011.03 1011.84 1012.73 1013.60 1014.35 1014.92 1015.30 1015.49 1015.57 1015.61 1015.67 1015.80 1016.01 1016.27 1016.54 1016.76 1016.90 1016.95 1016.94 1016.89 1016.87 1016.91 1017.03 1017.21 1017.41 1017.59 1017.71
1010.72 1011.09 1011.34 1011.41 1011.27 1010.93 1010.45 1009.91 1009.40 1009.01 1008.79 1008.74 1008.84 1009.02 1009.23 1009.39 1009.49 1009.54 1009.59 1009.72 1009.99 1010.45 1011.10 1011.90 1012.79 1013.65 1014.40 1014.99 1015.40 1015.63 1015.75 1015.82 1015.91 1016.05 1016.25 1016.49 1016.74 1016.94 1017.09 1017.16 1017.18 1017.19 1017.23 1017.31 1017.46 1017.63 1017.82 1017.96 1018.02
1011.00 1011.29 1011.44 1011.38 1011.13 1010.70 1010.16 1009.60 1009.10 1008.76 1008.60 1008.62 1008.78 1009.03 1009.28 1009.48 1009.62 1009.69 1009.77 1009.90 1010.17 1010.60 1011.22 1011.98 1012.81 1013.64 1014.37 1014.96 1015.38 1015.66 1015.82 1015.93 1016.06 1016.21 1016.41 1016.64 1016.87 1017.08 1017.23 1017.33 1017.40 1017.47 1017.56 1017.69 1017.85 1018.03 1018.18 1018.27 1018.27
1011.19 1011.38 1011.40 1011.23 1010.86 1010.36 1009.79 1009.24 1008.80 1008.52 1008.44 1008.55 1008.79 1009.10 1009.40 1009.65 1009.82 1009.92 1010.01 1010.15 1010.39 1010.79 1011.34 1012.04 1012.80 1013.57 1014.26 1014.83 1015.27 1015.57 1015.78 1015.94 1016.10 1016.27 1016.48 1016.71 1016.93 1017.13 1017.29 1017.43 1017.54 1017.66 1017.80 1017.97 1018.14 1018.30 1018.42 1018.46 1018.42
1011.23 1011.31 1011.20 1010.91 1010.47 1009.92 1009.34 1008.83 1008.44 1008.25 1008.26 1008.45 1008.77 1009.14 1009.50 1009.80 1010.01 1010.14 1010.25 1010.39 1010.61 1010.97 1011.46 1012.07 1012.75 1013.44 1014.08 1014.63 1015.07 1015.40 1015.65 1015.85 1016.05 1016.25 1016.47 1016.69 1016.90 1017.10 1017.27 1017.42 1017.57 1017.73 1017.91 1018.09 1018.28 1018.42 1018.51 1018.51 1018.43
1011.11 1011.07 1010.85 1010.46 1009.95 1009.37 1008.82 1008.35 1008.04 1007.93 1008.02 1008.28 1008.66 1009.09 1009.49 1009.84 1010.10 1010.27 1010.42 1010.57 1010.79 1011.11 1011.55 1012.08 1012.68 1013.29 1013.87 1014.38 1014.81 1015.16 1015.45 1015.70 1015.93 1016.16 1016.39 1016.61 1016.82 1017.00 1017.17 1017.32 1017.49 1017.67 1017.86 1018.06 1018.24 1018.38 1018.45 1018.43 1018.33
1010.84 1010.69 1010.37 1009.91 1009.36 1008.79 1008.26 1007.84 1007.60 1007.56 1007.71 1008.02 1008.44 1008.90 1009.35 1009.74 1010.05 1010.29 1010.49 1010.68 1010.91 1011.22 1011.61 1012.08 1012.60 1013.13 1013.65 1014.12 1014.54 1014.91 1015.23 1015.52 1015.79 1016.05 1016.29 1016.50 1016.70 1016.87 1017.02 1017.16 1017.32 1017.50 1017.70 1017.90 1018.09 1018.22 1018.29 1018.27 1018.18
1010.48 1010.25 1009.86 1009.35 1008.79 1008.23 1007.74 1007.37 1007.18 1007.17 1007.35 1007.68 1008.12 1008.60 1009.08 1009.52 1009.89 1010.20 1010.46 1010.72 1010.99 1011.30 1011.66 1012.08 1012.53 1013.00 1013.46 1013.89 1014.30 1014.67 1015.02 1015.34 1015.65 1015.93 1016.19 1016.41 1016.59 1016.74 1016.87 1016.99 1017.13 1017.29 1017.48 1017.68 1017.86 1018.01 1018.09 1018.10 1018.04
1010.12 1009.83 1009.40 1008.88 1008.33 1007.79 1007.34 1007.01 1006.84 1006.85 1007.02 1007.34 1007.76 1008.24 1008.74 1009.21 1009.65 1010.03 1010.38 1010.70 1011.02 1011.36 1011.72 1012.10 1012.51 1012.92 1013.33 1013.72 1014.11 1014.48 1014.85 1015.20 1015.54 1015.85 1016.12 1016.34 1016.52 1016.65 1016.75 1016.85 1016.96 1017.10 1017.27 1017.46 1017.65 1017.81 1017.92 1017.97 1017.97
1009.86 1009.54 1009.10 1008.59 1008.06 1007.55 1007.13 1006.82 1006.65 1006.65 1006.79 1007.06 1007.44 1007.90 1008.39 1008.89 1009.38 1009.84 1010.27 1010.66 1011.05 1011.42 1011.79 1012.16 1012.53 1012.89 1013.26 1013.63 1014.00 1014.37 1014.74 1015.12 1015.47 1015.80 1016.09 1016.32 1016.49 1016.61 1016.70 1016.77 1016.85 1016.96 1017.10 1017.28 1017.48 1017.67 1017.82 1017.93 1017.99
1009.75 1009.43 1009.00 1008.52 1008.02 1007.56 1007.16 1006.86 1006.67 1006.61 1006.69 1006.90 1007.23 1007.64 1008.11 1008.63 1009.15 1009.67 1010.16 1010.63 1011.07 1011.48 1011.86 1012.23 1012.58 1012.93 1013.27 1013.61 1013.97 1014.33 1014.71 1015.09 1015.46 1015.81 1016.11 1016.34 1016.52 1016.63 1016.70 1016.75 1016.81 1016.89 1017.02 1017.18 1017.38 1017.59 1017.79 1017.95 1018.08
1009.81 1009.50 1009.10 1008.66 1008.21 1007.78 1007.40 1007.09 1006.87 1006.76 1006.77 1006.90 1007.15 1007.50 1007.95 1008.46 1009.00 1009.55 1010.09 1010.61 1011.09 1011.53 1011.93 1012.31 1012.66 1012.99 1013.33 1013.67 1014.02 1014.38 1014.75 1015.13 1015.50 1015.85 1016.15 1016.39 1016.57 1016.69 1016.75 1016.79 1016.83 1016.89 1016.99 1017.14 1017.33 1017.56 1017.79 1018.01 1018.20
1009.99 1009.70 1009.35 1008.96 1008.57 1008.18 1007.82 1007.49 1007.23 1007.06 1006.99 1007.03 1007.20 1007.50 1007.90 1008.39 1008.93 1009.49 1010.05 1010.59 1011.08 1011.54 1011.96 1012.35 1012.71 1013.06 1013.41 1013.76 1014.12 1014.49 1014.86 1015.22 1015.58 1015.91 1016.20 1016.44 1016.62 1016.74 1016.82 1016.85 1016.88 1016.93 1017.01 1017.14 1017.31 1017.54 1017.79 1018.04 1018.28
1010.22 1009.97 1009.66 1009.34 1009.00 1008.66 1008.31 1007.98 1007.68 1007.45 1007.30 1007.27 1007.37 1007.60 1007.96 1008.41 1008.93 1009.48 1010.02 1010.55 1011.03 1011.49 1011.92 1012.32 1012.71 1013.10 1013.49 1013.88 1014.27 1014.64 1015.01 1015.36 1015.69 1015.99 1016.26 1016.48 1016.66 1016.79 1016.87 1016.92 1016.95 1016.99 1017.05 1017.15 1017.31 1017.51 1017.76 1018.03 1018.29
1010.41 1010.20 1009.97 1009.71 1009.44 1009.14 1008.82 1008.48 1008.14 1007.85 1007.64 1007.54 1007.58 1007.76 1008.07 1008.48 1008.96 1009.47 1009.97 1010.46 1010.92 1011.35 1011.78 1012.20 1012.64 1013.09 1013.54 1013.99 1014.43 1014.83 1015.20 1015.53 1015.83 1016.09 1016.31 1016.51 1016.68 1016.81 1016.91 1016.98 1017.02 1017.06 1017.11 1017.19 1017.31 1017.48 1017.70 1017.96 1018.23
1010.50 1010.35 1010.19 1010.02 1009.82 1009.57 1009.27 1008.92 1008.56 1008.22 1007.95 1007.80 1007.79 1007.92 1008.19 1008.56 1008.99 1009.44 1009.89 1010.31 1010.72 1011.12 1011.54 1011.99 1012.47 1013.00 1013.54 1014.07 1014.58 1015.03 1015.41 1015.73 1015.99 1016.20 1016.38 1016.54 1016.69 1016.83 1016.95 1017.04 1017.11 1017.16 1017.21 1017.26 1017.35 1017.47 1017.65 1017.87 1018.12
1010.45 1010.38 1010.32 1010.24 1010.12 1009.92 1009.64 1009.28 1008.88 1008.50 1008.18 1007.98 1007.93 1008.04 1008.27 1008.61 1008.99 1009.39 1009.76 1010.12 1010.46 1010.82 1011.21 1011.68 1012.22 1012.83 1013.47 1014.11 1014.70 1015.21 1015.63 1015.94 1016.17 1016.33 1016.46 1016.58 1016.71 1016.85 1016.99 1017.12 1017.22 1017.30 1017.35 1017.40 1017.45 1017.53 1017.65 1017.83 1018.04
1010.29 1010.31 1010.37 1010.39 1010.35 1010.20 1009.92 1009.55 1009.11 1008.68 1008.31 1008.08 1008.00 1008.09 1008.31 1008.62 1008.97 1009.31 1009.62 1009.90 1010.17 1010.47 1010.84 1011.32 1011.91 1012.59 1013.34 1014.08 1014.77 1015.36 1015.82 1016.14 1016.34 1016.46 1016.55 1016.63 1016.74 1016.88 1017.04 1017.21 1017.37 1017.48 1017.56 1017.61 1017.63 1017.67 1017.74 1017.86 1018.02
1010.04 1010.20 1010.37 1010.50 1010.53 1010.41 1010.14 1009.73 1009.24 1008.75 1008.34 1008.08 1007.98 1008.06 1008.29 1008.59 1008.92 1009.23 1009.49 1009.70 1009.90 1010.15 1010.48 1010.95 1011.58 1012.33 1013.16 1014.00 1014.79 1015.45 1015.96 1016.29 1016.49 1016.58 1016.62 1016.68 1016.77 1016.91 1017.11 1017.32 1017.53 1017.70 1017.81 1017.87 1017.89 1017.89 1017.91 1017.98 1018.09
1009.78 1010.07 1010.37 1010.60 1010.69 1010.59 1010.30 1009.85 1009.30 1008.75 1008.29 1008.00 1007.90 1007.99 1008.23 1008.56 1008.90 1009.19 1009.42 1009.58 1009.72 1009.91 1010.20 1010.65 1011.28 1012.07 1012.96 1013.87 1014.73 1015.47 1016.02 1016.38 1016.57 1016.65 1016.67 1016.70 1016.77 1016.93 1017.14 1017.40 1017.66 1017.89 1018.05 1018.13 1018.16 1018.15 1018.13 1018.15 1018.22
1009.55 1009.96 1010.37 1010.69 1010.82 1010.72 1010.40 1009.89 1009.28 1008.67 1008.17 1007.86 1007.77 1007.89 1008.18 1008.55 1008.92 1009.23 1009.45 1009.58 1009.68 1009.81 1010.05 1010.46 1011.07 1011.85 1012.77 1013.72 1014.63 1015.40 1015.99 1016.38 1016.58 1016.64 1016.65 1016.66 1016.73 1016.88 1017.12 1017.42 1017.72 1018.00 1018.20 1018.32 1018.37 1018.36 1018.33 1018.31 1018.34
1009.34 1009.87 1010.36 1010.73 1010.89 1010.78 1010.41 1009.85 1009.18 1008.52 1008.00 1007.68 1007.62 1007.79 1008.13 1008.56 1009.00 1009.35 1009.58 1009.71 1009.78 1009.87 1010.05 1010.41 1010.96 1011.72 1012.61 1013.56 1014.48 1015.27 1015.88 1016.28 1016.48 1016.55 1016.54 1016.55 1016.61 1016.76 1017.01 1017.32 1017.66 1017.97 1018.21 1018.37 1018.44 1018.44 1018.40 1018.38 1018.39
1009.14 1009.74 1010.29 1010.68 1010.83 1010.70 1010.29 1009.68 1008.97 1008.29 1007.76 1007.46 1007.44 1007.67 1008.09 1008.61 1009.11 1009.53 1009.81 1009.96 1010.02 1010.07 1010.21 1010.50 1010.99 1011.67 1012.51 1013.42 1014.30 1015.08 1015.68 1016.08 1016.29 1016.36 1016.36 1016.35 1016.40 1016.54 1016.78 1017.10 1017.45 1017.77 1018.04 1018.22 1018.31 1018.33 1018.31 1018.29 1018.29
1008.91 1009.54 1010.10 1010.48 1010.61 1010.44 1010.01 1009.36 1008.64 1007.95 1007.44 1007.19 1007.22 1007.53 1008.03 1008.64 1009.23 1009.72 1010.06 1010.25 1010.33 1010.38 1010.47 1010.70 1011.11 1011.72 1012.47 1013.30 1014.13 1014.86 1015.44 1015.83 1016.04 1016.10 1016.10 1016.09 1016.13 1016.26 1016.48 1016.77 1017.10 1017.42 1017.69 1017.88 1017.99 1018.03 1018.03 1018.02 1018.04
1008.64 1009.24 1009.76 1010.10 1010.19 1009.99 1009.53 1008.88 1008.17 1007.52 1007.06 1006.86 1006.96 1007.34 1007.92 1008.61 1009.28 1009.85 1010.27 1010.51 1010.63 1010.69 1010.77 1010.95 1011.30 1011.82 1012.48 1013.22 1013.97 1014.64 1015.18 1015.55 1015.75 1015.82 1015.82 1015.81 1015.84 1015.95 1016.14 1016.40 1016.69 1016.98 1017.23 1017.41 1017.52 1017.58 1017.60 1017.62 1017.66
1008.31 1008.84 1009.29 1009.55 1009.58 1009.35 1008.88 1008.26 1007.58 1006.99 1006.60 1006.47 1006.63 1007.07 1007.72 1008.46 1009.20 1009.84 1010.32 1010.63 1010.81 1010.90 1011.00 1011.18 1011.49 1011.94 1012.52 1013.17 1013.84 1014.44 1014.93 1015.28 1015.47 1015.55 1015.57 1015.56 1015.59 1015.68 1015.84 1016.05 1016.30 1016.54 1016.75 1016.91 1017.01 1017.07 1017.12 1017.17 1017.24
1007.99 1008.41 1008.74 1008.91 1008.86 1008.59 1008.13 1007.54 1006.93 1006.42 1006.09 1006.03 1006.25 1006.72 1007.39 1008.16 1008.93 1009.62 1010.16 1010.54 1010.78 1010.95 1011.10 1011.30 1011.61 1012.03 1012.55 1013.14 1013.74 1014.28 1014.73 1015.05 1015.25 1015.35 1015.38 1015.40 1015.43 1015.51 1015.65 1015.82 1016.02 1016.21 1016.37 1016.49 1016.58 1016.64 1016.70 1016.78 1016.89
Thickness
5807 5813 5814 5807 5798 5795 5791 5799 5805 5805 5806 5812 5811 5805 5799 5794 5787 5780 5802 5811 5806 5800 5791 5781 5778 5776 5775 5773 5771 5770 5768 5766 5764 5762 5761 5760 5758 5758 5757 5756 5755 5754 5753 5752 5751 5751 5750 5749 5749
5815 5814 5808 5804 5795 5789 5789 5802 5803 5807 5811 5812 5808 5804 5799 5797 5800 5797 5802 5805 5802 5798 5789 5782 5775 5773 5772 5771 5769 5767 5765 5764 5762 5760 5758 5758 5756 5756 5755 5754 5753 5752 5751 5750 5749 5748 5748 5747 5746
5815 5813 5804 5801 5795 5792 5793 5806 5808 5812 5813 5808 5804 5804 5800 5796 5797 5797 5802 5802 5799 5794 5788 5779 5773 5771 5769 5768 5766 5765 5763 5761 5760 5758 5756 5756 5755 5754 5753 5752 5751 5750 5749 5748 5747 5746 5745 5744 5743
5812 5807 5803 5796 5796 5803 5804 5810 5813 5809 5808 5809 5804 5798 5799 5799 5799 5801 5801 5799 5796 5790 5785 5776 5770 5768 5766 5765 5764 5762 5760 5759 5757 5756 5754 5754 5753 5751 5750 5750 5749 5747 5746 5745 5744 5743 5742 5742 5741
5812 5804 5796 5796 5800 5807 5814 5816 5815 5807 5805 5806 5803 5795 5793 5796 5801 5801 5797 5796 5791 5787 5782 5774 5767 5765 5763 5762 5761 5759 5758 5757 5755 5754 5753 5752 5751 5750 5748 5747 5746 5745 5744 5742 5741 5740 5740 5739 5739
5804 5803 5795 5796 5799 5808 5817 5820 5816 5809 5807 5805 5800 5794 5792 5795 5795 5794 5793 5791 5789 5784 5780 5770 5764 5762 5760 5759 5758 5757 5756 5755 5753 5752 5751 5750 5749 5748 5746 5745 5744 5742 5741 5740 5739 5738 5737 5737 5736
5800 5799 5797 5798 5798 5803 5814 5822 5816 5811 5806 5805 5804 5793 5791 5791 5793 5792 5789 5787 5784 5781 5777 5769 5764 5760 5757 5756 5756 5755 5754 5752 5751 5750 5749 5748 5747 5746 5744 5743 5742 5740 5739 5737 5736 5736 5735 5734 5734
5808 5801 5799 5800 5797 5802 5818 5820 5819 5813 5808 5813 5806 5791 5789 5788 5790 5788 5783 5780 5778 5776 5774 5768 5764 5761 5758 5756 5753 5752 5751 5750 5749 5748 5747 5747 5746 5744 5743 5742 5740 5738 5737 5736 5735 5734 5733 5733 5732
5806 5796 5798 5801 5798 5806 5819 5816 5818 5820 5812 5806 5805 5801 5798 5791 5786 5779 5775 5772 5769 5768 5768 5767 5765 5760 5759 5757 5753 5751 5749 5748 5748 5747 5746 5746 5748 5747 5744 5742 5738 5737 5735 5734 5733 5732 5731 5731 5731
5801 5796 5803 5811 5813 5813 5816 5815 5816 5811 5803 5800 5798 5796 5792 5785 5779 5773 5769 5765 5762 5761 5763 5763 5763 5760 5759 5758 5754 5752 5752 5749 5750 5749 5748 5748 5747 5747 5745 5739 5737 5735 5734 5733 5732 5731 5730 5732 5734
5803 5800 5811 5817 5822 5820 5817 5817 5820 5809 5801 5802 5797 5791 5785 5780 5775 5771 5768 5766 5763 5761 5760 5760 5759 5758 5758 5756 5754 5753 5751 5749 5750 5748 5747 5746 5746 5746 5745 5743 5739 5737 5735 5736 5733 5733 5735 5735 5734
5802 5809 5814 5817 5824 5820 5817 5818 5815 5810 5806 5810 5806 5798 5785 5778 5774 5770 5766 5764 5762 5758 5756 5757 5756 5755 5754 5754 5753 5751 5751 5750 5750 5746 5746 5745 5745 5744 5744 5742 5742 5739 5738 5736 5736 5734 5733 5732 5731
5803 5808 5818 5824 5825 5824 5819 5816 5812 5809 5811 5810 5804 5794 5784 5778 5774 5770 5767 5761 5758 5754 5752 5753 5753 5751 5750 5750 5750 5751 5750 5751 5748 5746 5744 5744 5744 5744 5743 5741 5739 5740 5739 5737 5734 5734 5732 5731 5730
5808 5812 5817 5823 5824 5822 5815 5815 5810 5806 5809 5803 5795 5788 5783 5777 5771 5766 5760 5756 5753 5751 5749 5750 5748 5748 5747 5747 5748 5748 5749 5746 5748 5746 5744 5742 5743 5742 5741 5740 5738 5738 5737 5737 5735 5734 5733 5733 5732
5811 5807 5816 5820 5820 5820 5816 5807 5803 5805 5803 5793 5787 5782 5777 5772 5767 5761 5758 5753 5750 5747 5745 5745 5745 5745 5744 5745 5745 5746 5746 5746 5745 5744 5741 5740 5740 5738 5739 5740 5738 5738 5736 5734 5734 5733 5733 5733 5733
5808 5804 5802 5814 5816 5818 5807 5796 5800 5804 5797 5786 5781 5776 5770 5765 5763 5759 5755 5750 5746 5744 5742 5742 5744 5742 5741 5742 5742 5743 5744 5742 5742 5741 5740 5738 5737 5736 5736 5739 5739 5736 5736 5736 5735 5735 5734 5734 5733
5799 5795 5795 5804 5816 5814 5806 5797 5800 5802 5794 5783 5777 5772 5767 5760 5757 5755 5752 5748 5745 5742 5740 5738 5740 5739 5738 5738 5738 5740 5739 5738 5738 5738 5738 5736 5735 5735 5736 5738 5737 5735 5737 5737 5737 5736 5735 5733 5732
5786 5790 5792 5795 5809 5808 5804 5801 5801 5798 5790 5782 5775 5770 5764 5758 5755 5753 5750 5747 5743 5741 5738 5736 5735 5735 5734 5734 5734 5735 5735 5735 5735 5735 5734 5734 5734 5734 5736 5736 5734 5736 5737 5735 5734 5732 5731 5732 5732
5788 5786 5788 5796 5808 5802 5800 5799 5799 5795 5787 5778 5772 5767 5762 5758 5756 5752 5747 5744 5741 5737 5734 5733 5731 5731 5731 5731 5731 5730 5730 5732 5733 5732 5732 5732 5733 5733 5733 5736 5733 5734 5735 5734 5734 5732 5731 5732 5732
5784 5782 5789 5798 5805 5798 5796 5797 5800 5793 5786 5780 5774 5768 5763 5758 5754 5749 5744 5741 5738 5735 5733 5732 5730 5730 5730 5730 5731 5730 5730 5731 5732 5731 5730 5730 5731 5731 5733 5733 5734 5733 5732 5731 5731 5730 5733 5733 5731
5782 5783 5786 5786 5797 5801 5792 5794 5793 5792 5788 5781 5777 5772 5767 5761 5754 5748 5742 5739 5737 5734 5733 5733 5730 5728 5728 5728 5728 5727 5726 5727 5727 5727 5728 5729 5729 5730 5730 5730 5732 5731 5734 5733 5730 5730 5729 5730 5731
5776 5794 5789 5786 5784 5789 5785 5774 5791 5791 5785 5780 5776 5771 5767 5762 5756 5749 5743 5739 5737 5736 5735 5732 5730 5727 5726 5726 5727 5726 5725 5725 5726 5727 5728 5727 5727 5728 5728 5728 5728 5729 5732 5730 5731 5731 5731 5729 5730
5785 5793 5787 5785 5782 5780 5788 5776 5790 5791 5783 5781 5778 5773 5770 5764 5758 5750 5745 5741 5739 5737 5735 5732 5729 5727 5725 5725 5726 5725 5726 5726 5727 5727 5725 5725 5726 5726 5727 5727 5727 5727 5729 5729 5728 5728 5729 5731 5730
5790 5784 5783 5784 5784 5767 5780 5771 5779 5793 5787 5785 5781 5774 5769 5764 5758 5752 5747 5743 5738 5737 5735 5732 5729 5726 5725 5724 5725 5725 5724 5724 5724 5723 5723 5724 5726 5726 5726 5726 5725 5726 5727 5726 5726 5726 5727 5728 5727
5781 5769 5761 5760 5765 5769 5783 5772 5781 5796 5795 5790 5783 5776 5771 5766 5759 5752 5748 5743 5739 5737 5735 5733 5729 5725 5724 5724 5724 5724 5723 5723 5722 5723 5723 5725 5727 5726 5724 5726 5724 5725 5724 5724 5724 5723 5725 5725 5723
5778 5776 5757 5748 5756 5773 5781 5772 5790 5800 5797 5793 5788 5781 5773 5768 5762 5756 5751 5746 5742 5739 5736 5734 5730 5727 5726 5725 5724 5723 5723 5724 5725 5724 5726 5725 5726 5727 5725 5723 5723 5722 5722 5722 5721 5723 5722 5721 5720
5774 5775 5790 5772 5767 5760 5774 5784 5795 5797 5792 5789 5785 5779 5773 5769 5764 5759 5754 5750 5745 5742 5738 5736 5732 5729 5727 5726 5724 5723 5723 5724 5725 5724 5724 5726 5724 5725 5723 5722 5722 5721 5720 5719 5718 5720 5718 5717 5718
5787 5786 5775 5765 5748 5747 5765 5775 5782 5788 5788 5785 5782 5778 5775 5770 5766 5762 5757 5753 5749 5745 5741 5738 5735 5731 5729 5727 5725 5725 5724 5723 5723 5723 5723 5723 5722 5722 5721 5721 5720 5719 5718 5716 5715 5716 5715 5713 5713
5771 5770 5771 5772 5769 5752 5751 5773 5800 5795 5794 5789 5785 5782 5778 5773 5768 5764 5759 5756 5752 5748 5743 5739 5735 5733 5730 5729 5727 5726 5724 5723 5721 5720 5720 5720 5719 5719 5718 5718 5717 5716 5715 5714 5712 5712 5711 5709 5709
5779 5776 5772 5756 5756 5761 5757 5774 5806 5802 5800 5795 5790 5784 5780 5775 5771 5766 5761 5757 5753 5749 5745 5741 5738 5735 5732 5730 5726 5724 5722 5721 5719 5718 5717 5717 5716 5716 5716 5715 5714 5713 5713 5711 5709 5708 5707 5705 5704